EW5975 Weather Reports


Display with metric or nautical units.
time (UTC)temp
F
wind
direction
speed
MPH
gust
MPH
rain 1hr
in
rain 24hr
in
rain mn
in
humidity
%
barometer
mb
20260510081016 65 113 2.0 5.0 0.00 0.00 0.00 74 1011.7
20260510080015 65 225 1.0 3.0 0.00 0.00 0.00 72 1011.4
20260510075037 65 113 2.0 4.0 0.00 0.00 0.00 70 1011.6
20260510074016 65 0.0 1.0 0.00 0.00 0.00 69 1011.4
20260510073016 65 225 1.0 3.0 0.00 0.00 0.00 69 1011.5
20260510072016 65 113 1.0 3.0 0.00 0.00 0.00 71 1011.4
20260510071016 64 203 1.0 3.0 0.00 0.00 0.00 73 1011.3
20260510070016 63 0.0 1.0 0.00 0.00 0.00 73 1011.3
20260510065017 62 0.0 0.0 0.00 0.00 0.00 73 1011.3
20260510064016 62 0.0 1.0 0.00 0.00 0.00 72 1011.5
20260510063016 61 0.0 1.0 0.00 0.00 0.00 72 1011.5
20260510062036 61 0.0 2.0 0.00 0.00 0.00 73 1011.3
20260510061016 61 0.0 0.0 0.00 0.00 0.00 75 1011.1
20260510060016 61 0.0 0.0 0.00 0.00 0.00 75 1011.1
20260510055017 60 0.0 0.0 0.00 0.00 0.00 74 1010.9
20260510054016 60 0.0 2.0 0.00 0.00 0.00 73 1010.8
20260510053016 60 0.0 0.0 0.00 0.00 0.00 75 1010.8
20260510052036 60 0.0 0.0 0.00 0.00 0.00 74 1010.7
20260510051016 60 0.0 0.0 0.00 0.00 0.00 74 1010.5
20260510050016 60 0.0 0.0 0.00 0.00 0.00 73 1010.6
20260510045015 60 0.0 0.0 0.00 0.00 0.00 73 1010.7
20260510044015 60 0.0 0.0 0.00 0.00 0.00 72 1010.7
20260510043016 60 0.0 0.0 0.00 0.00 0.00 73 1010.7
20260510042015 60 0.0 2.0 0.00 0.00 0.00 73 1010.6
20260510041016 60 0.0 0.0 0.00 0.00 0.00 72 1010.6
20260510040016 60 0.0 0.0 0.00 0.00 0.00 70 1010.5
20260510035016 60 0.0 0.0 0.00 0.00 0.00 69 1010.6
20260510034016 60 0.0 0.0 0.00 0.00 0.00 69 1010.6
20260510033056 61 0.0 0.0 0.00 0.00 0.00 70 1010.6
20260510032039 61 0.0 1.0 0.00 0.00 0.00 70 1010.5
20260510031018 61 0.0 0.0 0.00 0.00 0.00 69 1010.6
20260510030038 61 0.0 0.0 0.00 0.00 0.00 69 1010.9
20260510025016 61 0.0 1.0 0.00 0.00 0.00 67 1011.1
20260510024057 61 0.0 0.0 0.00 0.00 0.00 67 1011.1
20260510023017 61 0.0 0.0 0.00 0.00 0.00 67 1011.2
20260510022019 61 0.0 0.0 0.00 0.00 0.00 65 1011.0
20260510021019 62 0.0 0.0 0.00 0.00 0.00 66 1011.0
20260510020017 62 0.0 0.0 0.00 0.00 0.00 65 1011.2
20260510015037 62 0.0 1.0 0.00 0.00 0.00 66 1011.1
20260510014037 62 203 1.0 3.0 0.00 0.00 0.00 65 1011.0
20260510013017 62 180 1.0 4.0 0.00 0.00 0.00 61 1010.9
20260510012017 62 0.0 2.0 0.00 0.00 0.00 65 1011.1
20260510011017 62 0.0 2.0 0.00 0.00 0.00 67 1011.3
20260510010037 62 0.0 0.0 0.00 0.00 0.00 63 1011.3
20260510005017 62 0.0 0.0 0.00 0.00 0.00 62 1011.5
20260510004017 62 158 1.0 2.0 0.00 0.00 0.00 63 1011.4
20260510003019 62 248 1.0 4.0 0.00 0.00 0.00 60 1011.0
20260510002019 61 0.0 1.0 0.00 0.00 0.00 71 1011.1
20260510001017 61 0.0 1.0 0.00 0.00 0.00 72 1011.5
20260510000017 61 0.0 0.0 0.00 0.00 0.00 69 1011.6
20260509235018 61 0.0 0.0 0.00 0.00 0.00 67 1012.0
20260509234018 61 0.0 1.0 0.00 0.00 0.00 66 1012.0
20260509233017 61 0.0 1.0 0.00 0.00 0.00 66 1011.8
20260509232017 61 0.0 0.0 0.00 0.00 0.00 67 1011.7
20260509231017 61 0.0 0.0 0.00 0.00 0.00 65 1011.7
20260509230017 61 0.0 0.0 0.00 0.00 0.00 64 1011.9
20260509225017 61 0.0 0.0 0.00 0.00 0.00 64 1011.8
20260509224017 62 0.0 0.0 0.00 0.00 0.00 66 1011.6
20260509223037 62 113 1.0 4.0 0.00 0.00 0.00 66 1011.7
20260509222017 61 0.0 2.0 0.00 0.00 0.00 66 1011.7
20260509221038 61 0.0 3.0 0.00 0.00 0.00 68 1012.4
20260509220017 61 0.0 2.0 0.00 0.00 0.00 68 1012.3
20260509215017 61 0.0 3.0 0.00 0.00 0.00 69 1012.4
20260509214016 61 0.0 0.0 0.00 0.00 0.00 67 1012.8
20260509213017 61 0.0 0.0 0.00 0.00 0.00 67 1013.2
20260509212017 61 0.0 0.0 0.00 0.00 0.00 68 1013.0
20260509211037 61 0.0 1.0 0.00 0.00 0.00 67 1012.8
20260509210016 61 0.0 1.0 0.00 0.00 0.00 66 1012.7
20260509205016 61 0.0 0.0 0.00 0.00 0.00 67 1012.8
20260509204037 61 0.0 0.0 0.00 0.00 0.00 68 1012.9
20260509203016 61 0.0 1.0 0.00 0.00 0.00 69 1012.8
20260509202017 61 0.0 1.0 0.00 0.00 0.00 70 1012.9
20260509201137 62 0.0 0.0 0.00 0.00 0.00 69 1012.9
20260509200018 62 0.0 4.0 0.00 0.00 0.00 66 1013.1
20260509195016 62 0.0 1.0 0.00 0.00 0.00 66 1013.3
20260509194057 62 0.0 0.0 0.00 0.00 0.00 66 1013.3
20260509193016 63 0.0 0.0 0.00 0.00 0.00 65 1013.0
20260509192018 63 0.0 0.0 0.00 0.00 0.00 64 1012.8
20260509191018 63 0.0 1.0 0.00 0.00 0.00 63 1012.7
20260509190038 64 0.0 0.0 0.00 0.00 0.00 61 1012.7
20260509185036 64 0.0 0.0 0.00 0.00 0.00 60 1012.6
20260509184017 65 0.0 0.0 0.00 0.00 0.00 60 1012.5
20260509183049 66 0.0 0.0 0.00 0.00 0.00 60 1012.4
20260509182016 66 0.0 0.0 0.00 0.00 0.00 60 1012.1
20260509181016 66 0.0 0.0 0.00 0.00 0.00 58 1012.1
20260509180016 67 0.0 0.0 0.00 0.00 0.00 58 1012.2
20260509175036 67 0.0 0.0 0.00 0.00 0.00 57 1012.1
20260509174016 67 0.0 0.0 0.00 0.00 0.00 57 1012.2
20260509173016 68 0.0 2.0 0.00 0.00 0.00 56 1012.3
20260509172016 68 0.0 2.0 0.00 0.00 0.00 56 1012.3
20260509171016 69 0.0 2.0 0.00 0.00 0.00 55 1012.3
20260509170016 69 0.0 2.0 0.00 0.00 0.00 54 1012.3
20260509165016 69 0.0 2.0 0.00 0.00 0.00 56 1012.4
20260509164016 70 180 1.0 3.0 0.00 0.00 0.00 55 1012.6
20260509163037 70 225 1.0 3.0 0.00 0.00 0.00 54 1012.6
20260509162016 70 135 1.0 2.0 0.00 0.00 0.00 54 1012.7
20260509161016 70 135 1.0 3.0 0.00 0.00 0.00 54 1012.7
20260509160016 70 135 2.0 4.0 0.00 0.00 0.00 54 1012.8
20260509155016 69 203 2.0 4.0 0.00 0.00 0.00 57 1012.8
20260509154036 69 0.0 2.0 0.00 0.00 0.00 56 1012.9
20260509153015 69 203 2.0 6.0 0.00 0.00 0.00 57 1013.0
20260509152036 69 113 1.0 3.0 0.00 0.00 0.00 56 1013.2
20260509151015 69 135 1.0 3.0 0.00 0.00 0.00 56 1013.2
20260509150016 70 113 1.0 3.0 0.00 0.00 0.00 55 1013.3
20260509145016 70 113 1.0 3.0 0.00 0.00 0.00 57 1013.6
20260509144015 70 113 1.0 5.0 0.00 0.00 0.00 55 1013.6
20260509143036 71 225 2.0 4.0 0.00 0.00 0.00 55 1013.8
20260509142016 71 203 1.0 4.0 0.00 0.00 0.00 55 1014.0
20260509141017 71 135 1.0 4.0 0.00 0.00 0.00 53 1014.2
20260509140017 71 113 1.0 5.0 0.00 0.00 0.00 55 1014.4
20260509135058 72 113 1.0 7.0 0.00 0.00 0.00 56 1014.5
20260509134017 72 225 2.0 7.0 0.00 0.00 0.00 57 1014.5
20260509133017 72 113 1.0 5.0 0.00 0.00 0.00 56 1014.8
20260509132018 72 113 2.0 5.0 0.00 0.00 0.00 55 1014.9
20260509131017 71 203 3.0 8.0 0.00 0.00 0.00 55 1015.1
20260509130019 71 135 3.0 7.0 0.00 0.00 0.00 55 1015.2
20260509125057 71 113 3.0 7.0 0.00 0.00 0.00 56 1015.3
20260509124017 72 113 3.0 7.0 0.00 0.00 0.00 57 1015.4
20260509123017 72 180 2.0 5.0 0.00 0.00 0.00 55 1015.4
20260509122017 72 203 3.0 7.0 0.00 0.00 0.00 55 1015.3
20260509121017 72 113 2.0 7.0 0.00 0.00 0.00 53 1015.4
20260509120017 72 225 3.0 7.0 0.00 0.00 0.00 56 1015.4
20260509115057 72 113 3.0 8.0 0.00 0.00 0.00 57 1015.6
20260509114017 72 225 3.0 6.0 0.00 0.00 0.00 57 1015.7
20260509113017 72 113 2.0 5.0 0.00 0.00 0.00 55 1015.9
20260509112017 72 113 2.0 5.0 0.00 0.00 0.00 55 1016.0
20260509111038 71 135 2.0 5.0 0.00 0.00 0.00 56 1015.8
20260509110018 71 135 2.0 8.0 0.00 0.00 0.00 56 1015.8
20260509105037 72 225 3.0 8.0 0.00 0.00 0.00 54 1015.9
20260509104017 72 135 2.0 6.0 0.00 0.00 0.00 54 1015.9
20260509103018 72 113 3.0 7.0 0.00 0.00 0.00 53 1015.9
20260509102037 72 135 2.0 6.0 0.00 0.00 0.00 52 1016.0
20260509101018 72 135 3.0 7.0 0.00 0.00 0.00 52 1016.2
20260509100037 72 225 3.0 6.0 0.00 0.00 0.00 51 1016.2
20260509095017 72 203 3.0 6.0 0.00 0.00 0.00 51 1016.3
20260509094017 72 113 2.0 8.0 0.00 0.00 0.00 50 1016.3
20260509093016 72 113 2.0 5.0 0.00 0.00 0.00 50 1016.3
20260509092016 72 113 2.0 6.0 0.00 0.00 0.00 49 1016.4
20260509091016 72 113 2.0 7.0 0.00 0.00 0.00 49 1016.2
20260509090016 72 113 1.0 5.0 0.00 0.00 0.00 51 1016.1
20260509085017 72 135 1.0 3.0 0.00 0.00 0.00 52 1016.0
20260509084016 72 203 2.0 4.0 0.00 0.00 0.00 51 1015.9
20260509083018 71 113 2.0 6.0 0.00 0.00 0.00 53 1015.8
20260509082017 71 135 2.0 7.0 0.00 0.00 0.00 54 1015.8